Location: Chèvreville
(49.1099°N, 2.8495°E)
Time: 13:12:43
(UTC+00:00)

BlueWalker 3 - Pass Details

Date: 26 January 2026
Orbit: 450 x 461 km, 53.2° (Epoch: 11 February)

Event Time Altitude Azimuth Distance (km) Brightness Sun altitude
Rises 17:35:59 0° 241° (WSW) 2,451 7.3 -9.9°
Reaches altitude 10° 17:38:07 10° 240° (WSW) 1,580 5.9 -10.3°
Maximum altitude 17:41:40 82° 154° (SSE) 461 1.7 -10.8°
Enters shadow 17:44:16 17° 67° (ENE) 1,200 3.2 -11.2°
